Theta_e
325 324 321 321 321 321 320 318 314 308 309 315 315 321 325 328 330 330 328 326 325 321 322 324 325 327 328 328 329 329 329 330 329 328 328 327 327 326
324 323 322 321 321 322 322 320 317 313 309 314 318 319 327 330 330 327 327 326 322 321 322 323 323 323 324 324 325 326 326 325 325 325 326 326 326 327
323 323 322 323 323 323 323 320 319 316 311 320 322 321 324 327 328 327 327 326 323 321 322 321 320 320 320 321 321 322 322 322 322 323 323 323 324 326
322 322 323 326 322 322 322 322 319 318 316 318 321 322 323 327 327 325 326 327 325 321 321 320 319 318 317 317 316 317 317 317 318 319 320 321 323 326
323 322 322 323 319 321 323 324 322 321 318 320 318 320 322 325 323 323 323 323 324 323 319 319 317 317 317 316 315 314 312 312 312 313 316 318 320 322
324 322 321 321 321 322 323 324 322 318 318 320 319 317 319 321 322 320 317 319 318 321 320 320 319 318 316 316 315 314 311 309 309 309 311 311 312 315
321 321 320 321 321 321 324 323 322 319 317 317 316 316 316 318 318 317 314 316 315 318 319 320 320 319 317 316 319 316 310 309 308 308 308 307 307 309
318 318 319 320 319 313 316 317 321 319 317 317 316 316 317 315 316 316 315 316 311 318 317 316 320 318 319 320 313 309 308 308 308 307 307 306 305 305
318 317 319 324 320 321 312 311 313 311 316 319 316 317 316 317 317 316 317 314 311 314 318 313 318 316 318 313 308 306 306 306 306 305 305 305 304 303
319 318 319 322 321 321 321 321 319 318 317 319 318 315 318 319 319 317 315 314 315 314 316 310 314 313 314 314 306 306 305 304 304 304 304 304 302 301
319 320 320 321 303 304 321 318 317 315 307 308 307 305 303 306 312 316 314 313 311 311 314 312 312 313 312 310 311 305 304 303 303 303 303 303 302 301
318 316 304 315 300 302 318 318 316 314 314 313 311 306 309 307 307 318 316 313 310 310 314 311 311 312 310 313 311 310 306 302 302 302 302 302 301 302
319 316 313 299 298 299 308 320 315 315 311 315 316 315 315 315 316 316 314 316 311 309 314 314 312 310 310 308 308 307 306 305 303 302 300 300 300 302
318 317 311 298 297 299 308 298 301 309 317 316 315 314 315 315 316 317 316 316 318 316 315 316 312 311 309 308 306 307 305 304 303 305 304 303 299 299
318 308 296 296 298 301 298 300 305 317 316 314 314 314 316 316 317 316 315 317 318 317 318 317 315 314 312 308 307 307 306 306 306 306 305 305 306 301
304 306 305 304 304 305 308 313 318 318 317 315 315 316 316 316 315 314 313 313 314 316 316 317 317 315 312 312 310 308 308 308 306 307 307 307 306 306
311 315 316 315 315 316 318 318 317 317 316 316 315 315 314 314 314 312 312 315 313 313 312 315 315 316 315 311 308 309 309 309 310 310 306 306 309 310
315 315 314 315 315 317 316 315 316 313 316 316 316 316 315 314 313 312 313 314 314 313 312 312 313 311 311 311 314 313 311 311 314 313 310 308 312 315
315 314 315 316 316 317 316 316 314 315 317 316 316 316 315 315 310 312 313 313 312 314 311 311 310 309 305 306 308 307 311 310 310 309 312 310 312 315
315 314 314 316 317 317 317 316 316 317 316 317 316 316 315 314 311 312 313 313 313 312 311 310 310 310 310 309 307 307 299 311 309 310 310 311 313 307
315 315 316 317 318 317 318 318 318 317 317 317 317 317 316 313 312 314 313 302 305 312 312 311 314 298 313 311 308 309 312 299 309 312 311 311 314 313
316 316 317 318 318 318 318 318 317 315 317 318 318 317 317 315 313 315 314 314 313 313 313 315 314 309 309 310 310 310 312 315 306 302 304 309 316 311
314 315 317 317 318 319 318 318 317 314 317 319 319 316 316 316 315 315 316 316 314 314 313 314 312 311 312 311 308 311 309 311 313 314 317 304 301 302
Wind_Speed
5 5 3 3 3 3 3 3 5 3 3 2 1 2 3 3 3 3 3 8 9 9 12 17 11 14 14 14 14 13 12 13 16 15 15 15 14 14
4 6 4 3 4 3 3 3 3 4 2 2 1 2 3 1 2 4 4 5 9 11 14 19 18 15 14 14 14 12 14 13 13 12 12 12 11 11
4 6 6 5 4 3 3 3 3 3 3 1 1 3 2 4 4 5 4 4 3 8 13 15 16 15 14 13 12 12 13 13 13 12 11 10 10 10
6 6 6 4 4 4 3 5 4 3 4 7 2 2 3 4 5 6 3 4 3 8 13 15 14 16 14 13 11 13 13 12 12 11 10 9 10 9
6 6 6 5 4 3 3 4 2 3 3 6 3 2 3 3 5 6 4 5 4 9 12 13 13 15 15 13 13 12 12 11 11 9 10 10 8 8
6 6 6 6 6 5 4 5 4 5 5 7 4 3 3 3 4 5 5 5 4 4 6 7 11 14 13 12 13 12 12 11 10 10 10 8 8 9
5 5 5 6 6 3 3 4 7 5 7 8 4 3 2 3 6 3 4 5 5 2 4 4 6 5 5 9 9 11 10 10 10 10 9 8 9 8
6 5 4 4 4 4 5 8 11 10 8 6 4 6 5 3 4 8 6 4 3 3 3 3 3 4 4 5 9 11 10 10 10 8 8 8 9 9
6 5 4 3 5 5 5 4 6 3 8 10 11 10 6 5 7 8 5 4 3 1 5 3 2 3 2 4 10 10 10 10 9 8 9 9 9 8
5 5 5 4 4 5 5 6 7 5 5 4 7 6 7 7 8 7 7 6 6 5 2 3 2 2 2 2 6 9 9 9 9 10 10 10 9 10
4 4 4 4 3 10 9 10 8 5 5 12 11 13 12 13 9 9 7 9 4 1 1 3 2 3 2 2 2 7 9 9 10 10 10 10 11 11
4 3 4 4 8 10 9 10 10 6 7 7 7 9 9 10 10 5 11 8 5 2 3 4 3 3 2 2 3 4 4 7 10 11 12 12 11 4
3 3 1 4 7 10 10 9 9 9 9 8 7 7 7 8 4 5 3 9 6 2 5 4 3 3 2 2 3 4 5 4 4 5 12 13 13 11
5 3 3 4 10 11 8 12 14 10 6 6 6 6 7 6 5 5 5 5 2 3 9 5 4 4 3 2 3 2 4 4 4 6 5 6 12 14
4 5 7 9 11 10 15 15 10 7 6 6 5 3 4 5 5 5 4 5 3 5 9 5 5 8 4 3 2 3 2 4 6 7 4 7 7 4
7 5 7 8 8 10 8 6 5 7 6 5 4 4 4 4 4 2 3 3 3 2 6 6 5 7 4 3 3 3 4 3 3 5 5 4 4 6
7 3 4 5 8 6 6 6 5 6 6 5 6 5 4 3 2 2 2 2 3 3 3 3 3 4 3 4 3 4 4 4 5 4 4 4 6 8
3 5 5 6 6 6 6 5 5 6 5 6 5 6 5 4 3 2 2 3 3 3 3 3 4 2 2 4 10 5 4 4 5 4 4 4 7 7
4 5 5 6 5 5 6 5 5 4 6 6 6 5 5 4 4 3 2 2 2 1 2 2 2 4 3 5 4 12 6 4 2 3 5 6 7 10
4 5 5 5 5 5 4 3 4 4 4 5 5 4 4 5 3 4 4 2 2 1 1 3 4 5 7 7 4 4 15 6 5 5 5 3 8 15
4 5 5 5 5 3 4 4 5 5 4 4 4 4 4 4 4 4 4 4 4 3 5 5 8 8 1 2 3 5 6 19 12 7 4 3 8 5
4 5 5 5 5 5 4 4 4 4 4 4 4 5 4 5 5 6 5 6 7 6 6 5 1 4 4 5 9 8 7 8 11 20 19 15 9 6
4 4 4 4 4 4 4 4 4 4 4 4 4 4 4 4 5 5 6 5 4 4 4 7 2 4 5 7 9 8 8 11 7 9 9 16 23 27
Wind_Direction
172 170 158 189 183 180 168 151 154 193 226 263 174 246 199 171 200 114 146 154 141 158 145 145 153 146 157 152 148 155 156 155 148 158 161 159 172 172
164 165 170 168 187 188 177 168 164 143 152 237 237 183 214 133 99 59 88 104 141 140 147 146 155 152 150 148 143 153 147 142 142 148 158 160 169 174
166 173 189 178 187 202 187 173 170 143 129 124 102 52 89 119 78 83 86 86 99 137 143 140 152 147 146 146 143 145 139 141 144 148 157 160 170 183
183 177 191 176 185 201 199 202 179 173 131 143 95 80 60 100 96 97 82 76 105 129 148 142 147 141 139 140 137 136 141 145 142 155 158 167 178 190
177 182 185 171 186 205 188 186 161 132 132 138 115 78 72 109 98 75 67 63 63 122 136 138 142 139 142 140 143 145 144 139 151 154 160 175 170 169
177 178 171 177 185 199 208 160 139 113 121 137 114 90 85 72 96 116 77 56 72 64 88 129 148 134 131 145 149 149 148 152 157 165 173 176 174 180
156 172 178 180 167 170 190 158 132 141 144 151 129 106 113 144 138 111 102 107 54 73 107 105 119 117 134 141 144 144 151 153 164 180 181 177 184 192
163 168 167 181 183 161 151 160 163 159 155 150 147 162 151 118 129 143 138 133 118 25 85 73 115 125 136 151 149 150 156 164 180 179 173 186 196 207
155 166 178 193 192 169 161 179 163 193 167 159 165 177 155 154 142 140 134 107 112 120 113 80 78 92 102 117 143 151 163 177 178 176 190 201 208 218
166 174 181 187 196 160 146 146 134 131 142 136 156 133 122 142 151 134 108 97 94 62 86 91 49 89 93 92 140 165 183 188 184 194 205 213 221 230
153 158 168 150 167 143 134 127 118 89 53 115 120 121 131 129 133 128 137 140 123 110 65 103 157 103 101 157 206 218 208 197 202 210 217 223 226 232
125 117 47 153 158 157 139 141 134 135 123 113 106 105 123 129 145 172 149 153 127 103 184 101 129 126 170 208 203 220 217 233 229 228 226 227 227 231
144 153 163 158 162 157 142 150 146 136 130 126 126 127 128 143 139 134 140 154 150 114 167 114 150 153 123 171 241 205 197 222 220 240 238 240 232 212
159 161 152 169 154 143 125 127 123 122 127 128 131 137 146 152 149 148 132 131 119 140 163 135 147 165 159 176 235 193 219 228 207 238 237 242 237 236
129 114 112 124 121 99 125 130 124 123 129 134 134 131 144 138 127 121 130 143 133 137 170 194 160 177 161 190 195 211 189 233 213 230 226 234 240 207
101 108 112 101 92 117 126 126 134 140 138 134 121 104 101 131 142 135 140 148 141 154 186 191 166 170 185 221 194 234 208 251 194 222 235 246 236 227
124 122 110 115 130 135 127 117 122 129 138 140 140 136 145 132 127 132 113 137 169 159 168 194 186 212 201 177 224 227 233 237 229 224 184 260 245 232
122 128 123 133 137 132 137 133 139 144 149 145 148 157 162 163 146 144 132 159 189 180 174 183 149 112 349 273 202 242 228 236 245 216 204 226 273 262
121 125 135 144 141 143 146 156 156 155 146 151 154 158 151 158 157 171 175 153 187 167 183 153 146 150 193 255 279 216 227 230 229 248 211 204 249 267
127 137 143 149 155 152 146 132 130 143 153 146 152 158 157 153 169 184 198 178 173 207 240 180 189 183 203 227 227 263 204 230 197 250 262 233 240 260
146 145 147 150 146 130 139 142 146 153 155 157 161 164 175 160 173 190 178 206 200 216 238 234 225 211 183 87 298 275 272 213 225 213 241 222 271 278
155 150 155 151 151 149 137 134 133 148 160 167 177 177 181 172 182 198 190 207 221 234 245 264 170 140 178 194 248 255 272 286 230 236 242 229 245 266
152 142 150 150 158 160 145 151 166 180 187 188 183 190 187 202 198 198 212 211 216 225 232 265 231 185 223 211 228 252 257 267 272 283 278 234 239 246